Regional Weather Roundup
Issued by NWS

Home | Current Version | Previous Version | Graphics & Text | Print | Product List | Glossary On
Versions: 1 2 3 4 5 6 7 8 9 10 11 12 13 14 15 16 17 18 19 20 21 22 23 24 25 26 27 28 29 30 31 32 33 34 35 36 37 38 39 40 41 42 43 44 45 46 47 48 49 50
000
ASUS43 KDTX 291210
RWRMI
MICHIGAN HOURLY REGIONAL WEATHER ROUNDUP
NATIONAL WEATHER SERVICE DETROIT/PONTIAC MI
ISSUED BY NATIONAL WEATHER SERVICE GRAND RAPIDS MI
800 AM EDT MON MAY 29 2017

NOTE: "FAIR" INDICATES FEW OR NO CLOUDS BELOW 12,000 FEET WITH NO
SIGNIFICANT WEATHER AND/OR OBSTRUCTION TO VISIBILITY.

MIZ047>049-052>055-059>063-066>070-074>076-081>083-291300-
SOUTHEAST LOWER MICHIGAN

CITY           SKY/WX    TMP DP  RH WIND       PRES   REMARKS
ADRIAN         MOSUNNY   58  56  93 SW6       29.83R
6HR MIN TEMP:  52; 6HR MAX TEMP:  58;

ALMA           SUNNY     58  53  81 SW6       29.76S
ANN ARBOR      SUNNY     59  57  93 SW6       29.81R
BAD AXE        SUNNY     59  56  87 SW9       29.74R
6HR MIN TEMP:  56; 6HR MAX TEMP:  59;

DETROIT CITY   SUNNY     60  55  83 W9        29.80R
6HR MIN TEMP:  57; 6HR MAX TEMP:  62;

DETROIT        MOSUNNY   61  56  83 W10       29.81R
6HR MIN TEMP:  57; 6HR MAX TEMP:  61;

FLINT          SUNNY     59  53  80 SW8       29.78R
6HR MIN TEMP:  54; 6HR MAX TEMP:  59;

GROSSE ILE     SUNNY     61  56  84 W6        29.81R
6HR MIN TEMP:  57; 6HR MAX TEMP:  61;

HILLSDALE      PTSUNNY   61  52  72 SW5       29.82R
HOWELL         SUNNY     59  52  77 SW5       29.80R
6HR MIN TEMP:  53; 6HR MAX TEMP:  59;


CITY           SKY/WX    TMP DP  RH WIND       PRES   REMARKS
JACKSON        SUNNY     60  53  77 SW7       29.81R
6HR MIN TEMP:  54; 6HR MAX TEMP:  60;

LANSING        SUNNY     61  50  67 SW7       29.79R
6HR MIN TEMP:  54; 6HR MAX TEMP:  61;

MASON          SUNNY     60  53  76 SW5       29.80R
MONROE         SUNNY     61  56  84 W9        29.82R
6HR MIN TEMP:  57; 6HR MAX TEMP:  61;

MT. CLEMENS    SUNNY     61  59  92 W9        29.77R
6HR MIN TEMP:  58; 6HR MAX TEMP:  61; 6HR PCP:  0.01;

PONTIAC        MOSUNNY   59  54  83 SW8       29.79R
6HR MIN TEMP:  55; 6HR MAX TEMP:  60;

PORT HOPE        N/A     61  55  81 SW7       29.70R
6HR MIN TEMP:  55; 6HR MAX TEMP:  61;

PORT HURON     MOSUNNY   59  55  88 W5        29.77R
TRI CITIES     SUNNY     59  54  83 SW10      29.75R
6HR MIN TEMP:  55; 6HR MAX TEMP:  63;

YPSILANTI      SUNNY     62  57  83 W7        29.81R
6HR MIN TEMP:  56; 6HR MAX TEMP:  62;

$$
MIZ043>046-050>051-056>058-064>065-071>073-077>080-291300-
SOUTHWEST LOWER MICHIGAN

CITY           SKY/WX    TMP DP  RH WIND       PRES   REMARKS
BATTLE CREEK   SUNNY     60  53  77 SW8       29.81R
6HR MIN TEMP:  53; 6HR MAX TEMP:  60;

BENTON HARBOR  SUNNY     62  52  69 SW7       29.79R
6HR MIN TEMP:  50; 6HR MAX TEMP:  62;

BIG RAPIDS     SUNNY     54  52  92 SE5       29.73R
6HR MIN TEMP:  47; 6HR MAX TEMP:  55;

COLDWATER      PTSUNNY   60  55  85 SW6       29.82R
6HR MIN TEMP:  54; 6HR MAX TEMP:  60;

HOLLAND        SUNNY     61  51  70 SW8       29.77R
6HR MIN TEMP:  52; 6HR MAX TEMP:  61;

GRAND RAPIDS   MOSUNNY   60  51  72 SW8       29.76S
6HR MIN TEMP:  54; 6HR MAX TEMP:  60;

KALAMAZOO      SUNNY     61  51  70 SW6       29.80S
6HR MIN TEMP:  54; 6HR MAX TEMP:  61;

MARSHALL       SUNNY     61  53  75 SW5       29.80R
6HR MIN TEMP:  54; 6HR MAX TEMP:  61;

MOUNT PLEASANT SUNNY     59  50  71 SW7       29.74R
6HR MIN TEMP:  53; 6HR MAX TEMP:  59;

MUSKEGON       MOSUNNY   63  48  58 SW12G18   29.74R
6HR MIN TEMP:  50; 6HR MAX TEMP:  63;

STURGIS        MOSUNNY   59  55  85 S3        29.81S
6HR MIN TEMP:  53; 6HR MAX TEMP:  59;

$$
MIZ016>042-291300-
NORTHERN LOWER MICHIGAN

CITY           SKY/WX    TMP DP  RH WIND       PRES   REMARKS
ALPENA         SUNNY     57  54  89 SW5       29.68R
6HR MIN TEMP:  52; 6HR MAX TEMP:  57;

BEAVER ISLAND  FOG       51  51 100 SW9       29.66R VSB 1/4
6HR MIN TEMP:  47; 6HR MAX TEMP:  54;

BELLAIRE       SUNNY     55  51  87 S5        29.69R
6HR MIN TEMP:  47; 6HR MAX TEMP:  55;

CADILLAC       SUNNY     54  51  90 SW6       29.71S
CHARLEVOIX     SUNNY     55  51  86 SW6       29.70R
6HR MIN TEMP:  52; 6HR MAX TEMP:  55;

GAYLORD        SUNNY     55  48  77 SW10      29.69R
6HR MIN TEMP:  51; 6HR MAX TEMP:  55;

HOUGHTON LAKE  SUNNY     56  49  77 SW8       29.72R
6HR MIN TEMP:  54; 6HR MAX TEMP:  58;

MANISTEE       MOSUNNY   53  50  89 CALM      29.70S
OSCODA         SUNNY     59  55  86 SW8       29.70R
6HR MIN TEMP:  49; 6HR MAX TEMP:  59;

PELLSTON       MOSUNNY   53  51  93 CALM      29.66R
6HR MIN TEMP:  47; 6HR MAX TEMP:  53;

TRAVERSE CITY  MOSUNNY   57  48  72 VRB6      29.68R
6HR MIN TEMP:  52; 6HR MAX TEMP:  57;

LUDINGTON      SUNNY     54  51  87 CALM      29.71S
6HR MIN TEMP:  44; 6HR MAX TEMP:  54;

$$
MIZ007>008-015-291300-
EASTERN UPPER MICHIGAN

CITY           SKY/WX    TMP DP  RH WIND       PRES   REMARKS
KINROSS        CLOUDY    53  53 100 S5        29.65R FOG
6HR MIN TEMP:  51; 6HR MAX TEMP:  53;

MACKINAC ISLAN FOG       51  51 100 CALM      29.65R VSB 1/4
6HR MIN TEMP:  47; 6HR MAX TEMP:  52;

NEWBERRY       FOG       51  50  97 S6        29.63R VSB 3/4
6HR MIN TEMP:  51; 6HR MAX TEMP:  53;

S. S. MARIE    CLOUDY    55  54  96 S5        29.63F
6HR MIN TEMP:  54; 6HR MAX TEMP:  55;

$$
MIZ004>006-011>014-085-291300-
CENTRAL UPPER MICHIGAN

CITY           SKY/WX    TMP DP  RH WIND       PRES   REMARKS
MANISTIQUE     FOG       48  46  90 SW8       29.64R VSB 1/4
6HR MIN TEMP:  46; 6HR MAX TEMP:  51; 6HR PCP:  0.01;

ESCANABA       CLOUDY    52  50  93 SW5       29.64R
6HR MIN TEMP:  48; 6HR MAX TEMP:  52; 6HR PCP:  0.01;

SAWYER-GWINN   PTSUNNY   50  48  93 S5        29.61R
$$
MIZ001>003-009>011-084-291300-
WESTERN UPPER MICHIGAN

CITY           SKY/WX    TMP DP  RH WIND       PRES   REMARKS
IRON MOUNTAIN  MOSUNNY   50  46  86 W6        29.62R
6HR MIN TEMP:  45; 6HR MAX TEMP:  50;

HOUGHTON       LGT RAIN  50  47  89 W15       29.56S FOG
6HR MIN TEMP:  50; 6HR MAX TEMP:  52; 6HR PCP:  0.16;

COPPER HARBOR    N/A     45  44  97 CALM      29.55S
6HR MIN TEMP:  45; 6HR MAX TEMP:  52; 6HR PCP:  0.15;

IRONWOOD       CLOUDY    52  49  89 W10       29.63R
6HR MIN TEMP:  51; 6HR MAX TEMP:  53;

$$

ABBREVIATIONS USED IN REMARKS
   TC - TEMPERATURE IN CELSIUS
  WCI - WIND CHILL INDEX
   HX - HEAT INDEX
  VSB - VISIBILITY





USA.gov is the U.S. government's official web portal to all federal, state and local government web resources and services.